STARLINK-35469, 65863

Orbit data source: Space-Track

STARLINK-35469, 65863 is a payload satellite owned by SpaceX/Seattle (US) in LEO that was launched on Fri, 03 Oct 2025 UTC via an FALCON 9 launch vehicle from the Air Force Western Test Range (AFWTR). Payload-class satellites include a variety of spacecraft equipped with specific instruments for various scientific and technological missions. These include communications satellites like Starlink; space stations such as the ISS; scientific satellites like the Hubble; Earth observation satellites from companies like Planet Labs, Umbra, and HawkEye 360; GPS; miniature CubeSats for education and research; and military/defense satellites.

Loading next visibility...
Identifier
65863, 2025-223K
Orbit
LEO
Country
Flag of USUS
Related business
Manufacturer
SpaceX/Seattle
Mission
Operational spacecraft
Bus & Motor
STARLINK V2MO, Unknown motor
Mass
575 kg wet, ~530 kg dry
Launch date (UTC)
2025-10-03 (2 weeks ago)
Launch vehicle
FALCON 9
Launch site
Air Force Western Test Range (AFWTR)
Object type
Payload
Rocket body
Debris
Shape & HBR
Unknown
Radar Cross Section
RCS unknown

Expand to show TLE details & history
Last TLE update: 9 hours ago

TLE from 9 hours ago
0 STARLINK-35469
1 65863U 25223K   25291.08253198  .02877984  00000-0  17029-1 0  9992
2 65863  53.1563 240.7044 0014620 246.5295 113.4188 15.73934438  2319
Epoch: 2025-10-18T01:58Z
TLE epoch observation values (Epoch: 2025-10-18T01:58:50.763Z)
Latitude
-0.00002°
Longitude
-175.82578°
Altitude
352.502 km
Speed
7.697 km/s
True Right ascension
16h 02m 49s
True Declination
0° 00' 00"
Sunlit
Object was in daylight at epoch
Visualization orbit readout
Latitude
Unknown
Longitude
Unknown
Altitude
Unknown
Speed
Unknown
Apparent Right ascension
Unknown
Apparent Declination
Unknown
Sunlit
N/A
Visualization observer readout
Local Sidereal Time
05:54:58
Azimuth
Unknown
Elevation
Unknown
Doppler factor
Unknown
Orbital elements
Apogee altitude
357.76 km
Perigee altitude
338.093 km
Semi-major axis
6,726.064 km
Eccentricity
0.00146
Inclination
53.1563°
RAAN
240.7044°
Arg. of periapsis
246.5295°
True anomaly
113.57242°
Mean anomaly
113.4188°
Eccentric anomaly
113.49562°
Mean motion
3.93461 °/min
Orbital period
91.5 mins
BSTAR
0.017029
Loading maneuver chart data...
Computing Atmospheric mass density...
Loading historical data...
Loading historical data...
Loading historical data...
Loading historical data...
Loading historical data...
Loading historical data...
Loading historical data...

Documentation

Showing up to 5 results
|